Regional Weather Roundup
Issued by NWS

Home | Current Version | Previous Version | Text Only | Print | Product List | Glossary On
Versions: 1 2 3 4 5 6 7 8 9 10 11 12 13 14 15 16 17 18 19 20 21 22 23 24 25 26 27 28
000
ASUS45 KSLC 241110
RWRUT

UTAH REGIONAL WEATHER ROUNDUP
NATIONAL WEATHER SERVICE SALT LAKE CITY UT
500 AM MDT THU AUG 24 2017

UTZ001>011-023>025-241200-

NORTHERN UTAH

CITY           SKY/WX    TMP DP  RH WIND       PRES   REMARKS
BRIGHAM CITY   CLEAR     63  46  55 N3        30.06F
DUGWAY         PTCLDY    62  47  56 VRB2      30.04
HILL AFB       PTCLDY    65  46  48 E14       30.06F
LOGAN          PTCLDY    56  51  84 CALM      30.08S
OGDEN          PTCLDY    69  46  43 NE6       30.03F
SALT LAKE CITY MOCLDY    72  49  44 SE6       30.02S
TOOELE VALLEY  PTCLDY    64  52  63 S12       30.04S
WENDOVER       CLEAR     62  51  67 CALM      30.05S
HEBER CITY     PTCLDY    50  43  76 CALM      30.18R
WEST JORDAN    MOCLDY    68  54  60 SW9       30.06S

$$

UTZ011>015-024>027-241200-

CENTRAL/NORTHEAST UTAH

CITY           SKY/WX    TMP DP  RH WIND       PRES   REMARKS
PROVO AIRPORT  PTCLDY    63  48  58 S8        30.08S
MOAB/CANYONLAN MOCLDY    69  41  36 CALM      30.06R
DELTA          CLEAR     59  43  55 S9        30.08R
PRICE          MOCLDY    63  43  48 N7        30.15R
ROOSEVELT      CLOUDY    55  46  71 W5        30.15S
VERNAL         CLOUDY    62  44  51 NW5       30.13R

$$

UTZ013>016-019>022-027-241200-

SOUTHERN UTAH

CITY           SKY/WX    TMP DP  RH WIND       PRES   REMARKS
BRYCE CANYON   MOCLDY    50  42  74 W7        30.28F
CEDAR CITY     CLEAR     60  39  45 SE5       30.13R
MILFORD        CLEAR     57  37  47 W5        30.09F
ST GEORGE      MOSUNNY   79  47  32 N15       29.96S
HANKSVILLE     CLOUDY    64  54  68 NW3       30.09S
BLANDING       CLOUDY    63  48  58 N8G22     30.23F

$$

REGIONAL REPORTS     COLORADO/ARIZONA

CITY           SKY/WX    TMP DP  RH WIND       PRES   REMARKS
CRAIG, CO      CLOUDY    45  40  82 CALM      30.21R
GRAND JUNCTION CLOUDY    68  40  35 E5        30.07S
RIFLE, CO      CLOUDY    59  44  57 SE6       30.17S
MONTROSE, CO   CLOUDY    65  39  38 S9        30.18R
CORTEZ, CO     CLOUDY    65  49  56 NE5       30.23S
COLORADO CITY  LGT RAIN  75  45  33 S13G23    30.13F
PAGE, AZ       MOCLDY    75  52  44 VRB3      30.08R
GRAND CANYON   MOCLDY    58  52  80 CALM      30.27R
KINGMAN, AZ    PTCLDY    74  59  59 S8        30.00S
FLAGSTAFF, AZ  RAIN      54  53  97 E8        30.36S FOG

$$

REGIONAL REPORTS    NEVADA/IDAHO/WYOMING

CITY           SKY/WX    TMP DP  RH WIND       PRES   REMARKS
LAS VEGAS, NV  MOCLDY    82  52  35 S3        29.86S
ELY, NY        CLEAR     46  37  71 S8        30.18F
ELKO, NV       CLEAR     56  40  55 E6        30.10S
POCATELLO, ID  CLEAR     48  46  93 NW6       30.07S
BURLEY, ID     CLEAR     53  49  86 CALM      30.02S
FORT BRIDGER,  SUNNY     57  39  51 W6        30.26S
EVANSTON, WY   CLOUDY    48  41  76 SW8       30.24F
ROCK SPRINGS,  CLEAR     50  39  66 S8        30.22F
KEMMERER, WY     N/A     46  41  81 N7        30.25S

$$




USA.gov is the U.S. government's official web portal to all federal, state and local government web resources and services.